Seattle, WA

11:31 AM PDT on October 18, 2017 (GMT -0700)
Seattle-Tacoma International

Weather History for KSEA - November, 2013

Change the Weather History Date:

Saturday, November 2, 2013

  Actual Average Record
Temperature  
Mean Temperature 53 °F 48 °F  
Max Temperature 58 °F 54 °F 72 °F (1970)
Min Temperature 47 °F 43 °F 31 °F (1952)
Degree Days  
Heating Degree Days 12 17  
Month to date heating degree days 18 33  
Since 1 July heating degree days 534 630  
Cooling Degree Days 0 0  
Month to date cooling degree days 0 0  
Year to date cooling degree days 385 189  
Growing Degree Days 2 (Base 50)    
Moisture  
Dew Point 42 °F    
Average Humidity 69    
Maximum Humidity 83    
Minimum Humidity 54    
Precipitation  
Precipitation 0.50 in 0.19 in 2.18 in (1955)
Month to date precipitation 0.55 0.38  
Year to date precipitation 27.66 25.95  
Snow  
Snow 0.00 in - - ()
Month to date snowfall 0.0  
Since 1 July snowfall 0.0  
Snow Depth 0.00 in    
Sea Level Pressure  
Sea Level Pressure 29.74 in    
Wind  
Wind Speed 18 mph (SSW)    
Max Wind Speed 43 mph    
Max Gust Speed 59 mph    
Visibility 8 miles    
Events Rain    
T = Trace of Precipitation, MM = Missing Value Source: NWS Daily Summary

Daily Weather History Graph

Daily Weather History Graph

Search for Another Location

Airport or City:

Trip Planner

Search our weather history database for the weather conditions in past years. The results will help you decide how hot, cold, wet, or windy it might be!

Date:

Astronomy

Nov. 02, 2013 Rise Set
Actual Time 7:54 AM PDT 5:49 PM PDT
Civil Twilight 7:22 AM PDT 6:22 PM PDT
Nautical Twilight 6:46 AM PDT 6:58 PM PDT
Astronomical Twilight 6:10 AM PDT 7:34 PM PDT
Moon 6:55 AM PDT (11/2) 5:26 PM PDT (11/2)
Length of Visible Light 10h 59m
Length of Day
9h 54m
Waning Crescent, 1% of the Moon is Illuminated
Nov 2
Waning Crescent
Nov 3
New
Nov 9
First Quarter
Nov 17
Full
Nov 25
Last Quarter

Hourly Weather History & Observations

Time (PDT) Temp. Dew Point Humidity Pressure Visibility Wind Dir Wind Speed Gust Speed Precip Events Conditions
12:53 AM 55.9 °F 48.9 °F 77% 29.85 in 7.0 mi SSE 8.1 mph - 0.04 in Rain Rain
1:53 AM 55.0 °F 50.0 °F 83% 29.80 in 3.0 mi South 5.8 mph - 0.15 in Rain Light Rain
2:53 AM 55.0 °F 48.9 °F 80% 29.74 in 4.0 mi SSE 8.1 mph - 0.08 in Rain Light Rain
3:24 AM 53.6 °F 48.2 °F 82% 29.72 in 4.0 mi WSW 4.6 mph - 0.07 in Rain Light Rain
3:53 AM 54.0 °F 48.9 °F 83% 29.71 in 4.0 mi South 5.8 mph - 0.13 in Rain Light Rain
4:14 AM 53.6 °F 48.2 °F 82% 29.69 in 4.0 mi SSE 5.8 mph - 0.06 in Rain Rain
4:53 AM 54.0 °F 48.9 °F 83% 29.68 in 3.0 mi SE 10.4 mph - 0.07 in Rain Light Rain
5:53 AM 55.0 °F 48.9 °F 80% 29.60 in 10.0 mi ESE 15.0 mph - 0.04 in   Overcast
6:53 AM 55.9 °F 48.0 °F 75% 29.57 in 10.0 mi South 15.0 mph - 0.00 in   Overcast
7:53 AM 57.0 °F 46.9 °F 69% 29.54 in 9.0 mi South 23.0 mph 36.8 mph 0.01 in Rain Rain
8:21 AM 55.4 °F 48.2 °F 77% 29.55 in 8.0 mi SW 26.5 mph 34.5 mph 0.03 in Rain Light Rain
8:53 AM 54.0 °F 45.0 °F 72% 29.57 in 10.0 mi SSW 27.6 mph 38.0 mph 0.03 in   Overcast
9:53 AM 53.1 °F 44.1 °F 71% 29.59 in 10.0 mi SSW 27.6 mph 42.6 mph N/A   Overcast
10:53 AM 53.1 °F 42.1 °F 66% 29.61 in 10.0 mi SSW 23.0 mph 38.0 mph 0.00 in   Overcast
11:53 AM 53.1 °F 41.0 °F 64% 29.62 in 10.0 mi SSW 32.2 mph 47.2 mph N/A   Overcast
12:53 PM 53.1 °F 39.9 °F 61% 29.66 in 10.0 mi SW 32.2 mph 47.2 mph N/A   Overcast
1:53 PM 53.1 °F 39.0 °F 59% 29.71 in 10.0 mi SW 27.6 mph 38.0 mph N/A   Overcast
2:53 PM 53.1 °F 39.0 °F 59% 29.75 in 10.0 mi SW 26.5 mph 39.1 mph N/A   Overcast
3:53 PM 54.0 °F 37.0 °F 53% 29.80 in 10.0 mi SW 23.0 mph 40.3 mph N/A   Mostly Cloudy
4:53 PM 52.0 °F 37.0 °F 57% 29.82 in 10.0 mi SW 18.4 mph 38.0 mph N/A   Mostly Cloudy
5:53 PM 51.1 °F 37.0 °F 59% 29.82 in 10.0 mi WSW 18.4 mph 32.2 mph N/A   Mostly Cloudy
6:53 PM 50.0 °F 36.0 °F 59% 29.84 in 10.0 mi SW 21.9 mph 31.1 mph N/A   Mostly Cloudy
7:53 PM 48.9 °F 37.0 °F 64% 29.86 in 10.0 mi SW 16.1 mph 26.5 mph N/A   Partly Cloudy
8:35 PM 48.2 °F 37.4 °F 66% 29.86 in 10.0 mi SSW 12.7 mph 19.6 mph N/A   Mostly Cloudy
8:53 PM 48.9 °F 37.0 °F 64% 29.88 in 10.0 mi SW 10.4 mph 19.6 mph N/A   Mostly Cloudy
9:53 PM 48.9 °F 37.9 °F 66% 29.90 in 10.0 mi SW 8.1 mph - N/A   Overcast
10:53 PM 48.0 °F 37.9 °F 68% 29.92 in 10.0 mi SW 6.9 mph - N/A   Overcast
11:09 PM 48.2 °F 37.4 °F 66% 29.89 in 10.0 mi SW 5.8 mph - N/A   Overcast
11:53 PM 48.0 °F 37.9 °F 68% 29.92 in 10.0 mi SW 11.5 mph - N/A   Scattered Clouds